Wetbulb
71.19 71.93 72.34 72.33 73.50 73.43 72.42 72.14 71.85 72.10 71.67 71.62 72.43 70.53 71.31 71.98 71.50 70.35 69.05 74.10 75.00 75.77 75.31 75.70 75.48 75.90 75.77 76.07 75.98 75.89 75.72 75.76 75.52 75.14 75.14 75.19 75.00 75.41 75.01 74.69 74.24 73.60 74.43
71.95 71.65 71.59 72.84 72.55 72.46 71.99 70.94 71.87 70.81 71.00 70.35 71.66 71.86 71.59 72.23 71.98 71.88 70.27 68.69 74.80 74.90 75.06 75.14 75.43 75.77 75.76 76.05 76.07 75.90 75.78 75.64 75.70 75.48 75.18 75.58 75.51 75.58 75.13 75.14 74.47 73.23 73.53
72.36 72.62 71.56 72.46 73.15 72.41 71.79 71.98 72.99 70.97 70.66 71.27 70.29 70.38 71.52 72.58 72.52 72.12 71.40 70.35 69.57 74.39 74.18 74.37 75.02 75.19 75.61 75.98 76.09 75.57 75.64 75.61 75.81 76.07 75.89 75.36 75.14 75.80 75.61 75.74 75.48 74.89 74.90
73.11 72.86 73.05 72.42 73.27 72.75 72.47 71.55 71.42 70.59 69.96 70.41 69.98 70.75 71.63 72.05 72.44 72.20 71.90 71.41 71.01 70.24 73.14 75.22 75.26 75.13 75.35 75.47 75.30 75.16 75.74 75.88 76.19 76.32 76.02 75.18 75.41 75.49 75.70 75.50 75.88 76.03 76.01
73.51 72.19 72.99 72.52 74.06 72.71 72.10 71.86 71.87 70.70 69.87 70.50 70.67 70.89 70.96 71.49 71.99 72.92 71.80 71.78 71.18 71.41 70.01 73.19 75.38 75.48 74.99 75.13 74.92 74.02 75.08 76.10 76.28 76.36 76.10 75.51 75.76 75.56 75.44 75.86 75.74 75.68 75.69
74.94 73.46 72.08 71.79 72.50 72.18 72.03 71.76 71.61 71.78 70.68 70.25 71.30 71.83 71.36 71.54 71.95 72.36 72.31 71.87 70.42 70.68 70.86 69.83 71.73 73.14 75.34 74.78 74.75 74.78 74.34 75.42 75.58 75.58 76.16 75.53 75.59 75.96 75.86 75.26 75.66 75.61 75.51
74.30 74.25 73.44 72.75 72.62 71.84 71.86 72.41 71.53 70.61 69.79 71.10 69.08 69.44 70.44 71.40 71.90 72.28 72.17 71.45 71.96 71.20 71.12 70.22 69.69 71.23 72.08 75.45 74.94 74.77 74.62 73.86 74.79 75.38 75.61 75.99 76.06 75.98 75.58 75.41 74.75 75.53 75.58
74.78 74.61 73.84 73.52 73.58 72.31 72.04 72.00 71.96 70.38 71.04 71.35 68.83 67.05 65.70 66.88 69.75 71.90 70.96 71.72 71.84 72.63 71.56 70.80 70.47 70.20 70.71 71.19 72.67 75.06 74.82 74.57 74.54 75.65 74.94 75.39 75.86 75.88 75.75 75.33 75.15 75.12 75.58
74.74 74.29 74.02 73.51 73.25 72.85 71.92 71.85 72.31 70.74 69.40 70.09 70.20 68.22 64.52 62.56 65.09 68.24 70.52 70.96 70.98 71.39 72.27 71.62 71.09 70.59 70.63 70.59 71.92 73.16 74.36 73.66 75.24 75.82 74.91 74.73 74.83 75.38 75.65 75.50 75.17 74.82 74.91
74.76 75.36 74.64 74.34 73.32 72.83 72.67 72.77 73.28 71.35 71.17 69.35 68.72 70.41 68.45 67.79 65.14 64.07 66.50 68.97 70.39 70.47 70.52 71.89 71.67 71.23 71.10 70.98 71.91 72.59 73.50 73.91 74.46 75.00 74.81 73.74 74.83 74.66 75.18 75.48 75.24 74.94 74.66
75.38 75.23 74.35 73.93 73.57 73.41 73.02 73.03 73.13 72.68 71.62 70.79 69.96 69.06 67.80 67.70 66.44 64.27 64.43 65.35 67.73 70.30 71.50 71.40 71.82 72.30 71.55 71.47 71.47 71.82 72.99 73.44 73.98 74.23 75.06 75.22 74.51 74.43 74.46 75.38 75.23 75.42 75.29
74.35 75.45 75.18 74.26 74.47 74.23 73.83 73.74 73.74 73.48 72.84 72.60 72.01 69.92 69.49 68.68 67.53 65.17 64.10 64.64 65.50 67.37 69.05 71.12 71.61 71.61 71.52 71.81 73.09 73.51 73.00 73.22 72.97 73.35 73.11 74.04 74.49 74.18 74.71 74.96 74.95 75.12 75.01
71.97 73.19 74.16 74.32 75.18 75.49 75.32 74.51 74.13 74.04 73.09 71.59 71.48 71.39 70.91 70.28 68.92 66.30 65.26 65.65 64.85 66.51 67.25 69.68 71.53 72.18 72.67 72.52 72.61 73.93 74.15 73.16 72.87 72.17 71.72 72.73 73.09 73.76 74.34 75.18 75.57 75.62 74.96
71.67 73.49 74.11 73.98 74.16 74.94 75.17 75.26 74.72 74.14 72.03 72.06 70.50 68.94 68.16 71.13 70.85 68.49 67.03 64.66 62.76 63.34 64.95 65.67 69.95 71.75 72.68 73.19 72.70 73.23 69.87 69.66 70.55 72.07 71.48 71.59 72.53 72.67 73.27 73.73 73.98 74.86 75.00
74.58 75.10 74.93 74.16 74.41 75.65 75.83 75.95 75.28 73.14 71.77 70.64 69.15 67.24 65.29 68.56 72.22 70.46 67.75 65.63 63.96 60.13 61.45 66.10 67.81 67.48 70.67 71.75 70.20 68.92 69.10 69.40 70.31 71.37 70.81 70.87 71.56 71.95 72.49 72.74 72.68 72.79 73.38
73.56 73.02 74.81 74.43 74.43 75.67 75.98 75.70 75.38 73.01 71.24 71.07 67.98 64.55 66.43 71.38 72.13 70.59 67.91 64.83 66.12 64.01 62.00 66.54 68.18 66.79 67.03 70.24 70.37 70.33 69.70 70.82 70.63 70.77 70.67 70.13 70.63 71.28 71.70 71.84 71.96 71.89 72.48
74.91 74.86 74.61 74.53 74.94 75.09 74.88 75.24 75.94 72.17 68.92 66.83 66.32 67.68 68.65 70.58 72.26 70.93 68.40 66.15 66.12 66.30 64.60 65.97 67.68 68.60 65.87 65.57 69.04 69.40 69.96 70.74 72.13 71.06 70.23 70.05 69.73 70.49 70.92 71.13 70.91 70.90 71.14
74.56 73.54 74.30 75.15 75.28 73.83 74.00 74.63 74.96 73.62 70.42 65.25 64.39 64.90 65.36 69.39 71.35 71.03 70.16 69.35 68.40 67.84 67.05 65.94 66.67 67.71 67.93 67.55 67.23 66.99 68.39 70.84 72.12 72.57 69.62 69.22 68.90 68.90 69.13 69.28 69.21 69.00 68.98
74.68 74.63 74.26 74.44 73.80 73.26 74.64 74.76 74.53 73.86 72.08 70.71 68.65 68.08 69.31 70.58 71.12 70.70 69.76 69.28 68.07 68.49 68.36 67.95 68.07 68.18 69.15 69.33 68.74 66.35 68.00 69.10 71.67 72.22 69.82 68.40 68.11 68.04 67.82 67.43 66.92 66.37 65.29
73.40 73.24 73.92 73.68 73.59 74.68 75.09 74.38 74.28 73.25 72.45 72.31 71.17 70.53 71.18 72.05 72.10 70.83 69.69 69.85 69.31 69.06 69.37 69.80 70.37 69.60 68.97 69.62 68.65 67.57 66.23 67.95 70.12 72.91 72.91 70.59 69.51 68.47 67.73 66.41 66.55 65.99 63.65
73.44 73.63 73.80 74.68 74.68 74.81 75.20 73.04 71.76 71.20 70.96 70.85 71.60 72.45 73.06 73.27 72.51 71.70 71.05 70.46 69.78 69.71 69.42 69.90 68.09 65.00 64.89 65.43 66.04 67.53 67.45 67.71 67.93 69.49 70.56 71.08 69.78 69.83 69.49 67.39 68.20 68.07 65.31
74.87 74.97 73.21 73.23 72.05 74.53 70.44 70.23 70.55 69.30 68.31 67.68 66.30 67.45 69.48 71.70 71.80 70.39 69.57 69.68 70.83 70.09 67.37 67.75 68.18 66.71 66.09 64.75 67.35 67.86 66.67 65.33 65.13 69.15 69.13 69.37 71.34 70.21 70.12 70.21 68.67 67.25 65.49
71.16 70.00 67.83 66.62 65.58 66.30 68.04 68.56 70.25 67.39 65.94 63.83 63.57 63.83 64.06 66.86 65.62 67.42 68.54 68.85 68.60 67.91 68.85 68.61 67.80 66.06 65.06 65.22 67.17 66.76 67.41 66.75 65.53 67.21 68.47 66.28 69.17 68.83 70.37 70.95 67.08 65.77 65.04
66.68 64.91 64.43 64.86 64.96 67.74 65.41 65.78 67.90 66.47 63.84 62.70 62.75 62.50 62.25 61.76 62.28 63.45 63.35 64.54 67.44 69.39 69.37 68.11 68.79 69.80 67.33 66.76 66.56 66.56 66.70 68.18 68.18 67.61 67.75 64.66 66.06 66.99 68.31 71.06 67.50 66.24 64.53
64.78 64.23 64.93 65.23 65.64 64.69 63.42 63.79 64.65 64.67 63.71 63.35 62.57 62.13 61.41 60.50 61.31 60.95 58.88 58.80 59.64 61.10 65.84 66.01 65.25 65.49 64.71 64.36 65.67 67.19 66.71 68.00 67.41 67.16 67.97 66.78 66.98 65.79 67.12 68.30 69.50 65.82 63.87
65.24 66.68 67.41 65.85 64.83 65.96 64.52 63.26 62.56 63.45 62.52 62.66 62.65 62.28 61.71 59.13 57.77 57.51 54.89 54.89 55.05 56.82 60.64 62.06 62.69 63.99 64.59 65.67 64.70 66.22 66.76 66.32 66.75 64.99 67.57 67.23 65.33 65.34 64.12 65.82 68.79 68.92 67.16
MSLP
1018.34 1018.45 1018.44 1018.47 1018.46 1018.46 1018.62 1018.74 1018.75 1018.80 1018.91 1018.95 1018.79 1018.76 1018.57 1018.47 1018.34 1018.44 1018.66 1018.65 1018.72 1018.66 1018.78 1018.85 1019.11 1019.36 1019.34 1019.31 1019.48 1019.63 1019.95 1020.05 1020.22 1020.50 1020.65 1020.88 1021.05 1021.28 1021.50 1021.84 1022.07 1022.31 1022.47
1017.69 1018.12 1018.30 1018.26 1018.33 1018.38 1018.54 1018.64 1018.55 1018.55 1018.68 1018.70 1018.44 1018.28 1018.11 1018.12 1017.97 1018.26 1018.19 1018.32 1018.37 1018.44 1018.42 1018.53 1018.59 1019.00 1019.20 1019.10 1019.36 1019.48 1019.58 1019.82 1019.95 1020.21 1020.56 1020.77 1020.95 1021.13 1021.30 1021.57 1021.87 1022.17 1022.36
1017.32 1017.43 1017.90 1017.84 1017.86 1018.01 1018.36 1018.64 1018.51 1018.37 1018.55 1018.68 1018.38 1017.95 1017.86 1017.70 1017.64 1017.80 1017.79 1017.88 1018.04 1017.97 1018.21 1018.35 1018.48 1018.58 1018.82 1019.00 1019.09 1019.34 1019.46 1019.58 1019.79 1020.00 1020.30 1020.57 1020.76 1020.93 1021.15 1021.35 1021.64 1021.91 1022.17
1017.00 1017.16 1017.48 1017.61 1017.51 1017.77 1018.02 1018.18 1018.41 1018.57 1018.47 1018.48 1018.41 1017.86 1017.69 1017.50 1017.31 1017.26 1017.33 1017.45 1017.68 1017.53 1017.67 1017.82 1017.99 1018.33 1018.51 1018.72 1018.89 1018.96 1019.17 1019.38 1019.47 1019.66 1019.96 1020.27 1020.56 1020.74 1020.92 1021.13 1021.34 1021.61 1021.84
1016.85 1017.05 1017.25 1017.22 1017.22 1017.66 1017.97 1018.21 1018.23 1018.30 1018.39 1018.28 1018.13 1017.63 1017.25 1017.14 1016.95 1016.76 1016.82 1016.93 1017.08 1017.15 1017.24 1017.27 1017.48 1017.72 1017.89 1018.24 1018.42 1018.68 1018.73 1019.05 1019.24 1019.34 1019.57 1019.88 1020.15 1020.46 1020.60 1020.82 1021.05 1021.34 1021.61
1016.58 1016.81 1017.02 1017.11 1017.19 1017.53 1017.86 1017.98 1017.95 1017.99 1018.06 1017.96 1017.91 1017.34 1016.84 1016.41 1016.32 1016.20 1016.25 1016.43 1016.61 1016.68 1016.76 1016.92 1017.00 1017.14 1017.27 1017.41 1017.86 1018.14 1018.36 1018.53 1019.10 1019.33 1019.23 1019.59 1019.80 1020.03 1020.28 1020.53 1020.69 1021.01 1021.33
1016.34 1016.62 1016.74 1016.88 1016.93 1017.32 1017.58 1017.69 1017.77 1017.89 1017.87 1017.77 1017.93 1017.34 1016.48 1015.81 1015.72 1015.72 1015.91 1016.12 1015.97 1015.96 1016.18 1016.25 1016.43 1016.64 1016.84 1017.01 1017.26 1017.67 1018.02 1018.26 1018.61 1018.78 1019.02 1019.15 1019.35 1019.68 1019.91 1020.12 1020.46 1020.71 1021.00
1016.02 1016.23 1016.46 1016.74 1016.78 1017.08 1017.26 1017.41 1017.63 1017.65 1017.53 1017.45 1017.92 1017.94 1017.16 1016.18 1015.93 1015.70 1015.88 1015.95 1015.48 1015.14 1015.30 1015.46 1015.66 1015.90 1016.13 1016.40 1016.60 1016.93 1017.33 1017.64 1017.81 1018.05 1018.55 1018.72 1018.92 1019.21 1019.57 1019.70 1019.99 1020.38 1020.60
1015.65 1015.78 1015.89 1016.10 1016.40 1016.61 1016.80 1016.90 1017.05 1017.43 1017.42 1017.15 1017.32 1017.60 1017.52 1017.26 1016.76 1015.86 1015.56 1015.50 1015.36 1015.06 1014.73 1014.79 1015.11 1015.35 1015.56 1016.00 1016.25 1016.40 1016.64 1016.98 1017.22 1017.33 1017.79 1018.19 1018.51 1018.79 1019.08 1019.35 1019.58 1019.91 1020.23
1015.29 1015.33 1015.47 1015.65 1015.82 1016.10 1016.31 1016.47 1016.73 1016.91 1017.17 1017.20 1017.30 1017.30 1017.25 1017.22 1017.28 1016.59 1015.73 1015.12 1014.88 1014.66 1014.41 1014.64 1015.06 1015.11 1015.55 1015.95 1016.03 1016.15 1016.12 1016.19 1016.52 1016.79 1017.08 1017.47 1017.93 1018.23 1018.55 1018.91 1019.20 1019.41 1019.77
1014.81 1014.84 1014.96 1015.24 1015.66 1015.83 1015.92 1016.14 1016.35 1016.49 1016.77 1017.02 1017.10 1017.16 1017.12 1016.96 1017.00 1017.38 1016.44 1015.56 1015.04 1014.28 1014.06 1014.13 1014.02 1014.32 1014.71 1015.28 1015.52 1015.59 1015.58 1015.88 1015.97 1016.13 1016.37 1016.70 1017.17 1017.59 1017.94 1018.16 1018.53 1018.90 1019.24
1014.52 1014.35 1014.45 1014.77 1014.85 1015.25 1015.39 1015.54 1015.74 1016.02 1016.19 1016.44 1016.53 1016.77 1016.84 1016.70 1016.67 1016.90 1016.76 1015.88 1015.18 1014.20 1013.78 1013.76 1014.02 1013.81 1014.06 1014.26 1014.40 1014.78 1015.20 1015.23 1015.37 1015.49 1015.67 1015.98 1016.45 1016.83 1017.17 1017.41 1017.73 1018.09 1018.51
1014.38 1014.20 1014.36 1014.48 1014.49 1014.51 1014.74 1015.05 1015.30 1015.40 1015.60 1016.00 1016.30 1016.07 1016.07 1015.82 1015.84 1016.24 1016.29 1015.73 1015.38 1014.36 1013.80 1013.11 1012.79 1013.11 1012.98 1013.10 1013.76 1014.43 1014.57 1014.78 1014.77 1014.84 1014.89 1015.17 1015.46 1015.97 1016.27 1016.57 1016.94 1017.24 1017.66
1013.97 1013.91 1013.83 1013.80 1013.85 1013.89 1014.33 1014.66 1014.83 1014.94 1015.64 1016.12 1015.60 1014.34 1013.60 1014.28 1014.82 1015.34 1015.71 1015.77 1015.49 1015.02 1014.28 1013.38 1012.89 1012.97 1012.97 1012.96 1012.91 1012.70 1013.41 1013.02 1014.40 1013.89 1014.09 1014.50 1014.68 1015.10 1015.46 1015.79 1016.23 1016.53 1016.91
1013.52 1013.55 1013.55 1013.53 1013.56 1013.81 1014.12 1014.19 1014.38 1014.88 1015.01 1014.74 1014.41 1014.24 1013.78 1013.64 1014.24 1014.32 1014.81 1015.13 1015.55 1015.63 1014.85 1013.49 1013.45 1013.24 1012.96 1012.93 1013.03 1012.90 1012.84 1013.34 1013.47 1012.82 1013.16 1013.54 1013.99 1014.33 1014.75 1015.02 1015.41 1015.89 1016.28
1013.24 1013.37 1013.38 1013.41 1013.55 1013.77 1013.92 1013.89 1014.05 1014.38 1014.51 1014.27 1014.12 1013.88 1013.83 1013.39 1013.89 1014.04 1014.33 1014.52 1014.83 1015.28 1015.27 1013.88 1013.30 1013.18 1013.14 1012.97 1012.65 1012.54 1012.45 1012.19 1012.21 1012.11 1012.37 1012.51 1013.04 1013.55 1013.93 1014.33 1014.62 1015.07 1015.51
1013.14 1013.24 1013.29 1013.33 1013.46 1013.62 1013.68 1013.67 1013.58 1013.92 1014.16 1013.92 1013.82 1013.94 1013.55 1013.51 1013.47 1013.70 1013.71 1013.88 1014.22 1014.53 1014.78 1013.94 1013.22 1012.73 1012.88 1012.83 1012.57 1012.24 1011.85 1011.51 1011.43 1011.47 1011.43 1011.76 1012.25 1012.66 1013.03 1013.51 1013.90 1014.33 1014.78
1012.96 1013.15 1013.21 1013.25 1013.28 1013.43 1013.48 1013.48 1013.28 1013.25 1013.64 1013.94 1013.74 1013.73 1013.32 1013.04 1013.07 1012.90 1013.14 1013.29 1013.39 1013.46 1013.80 1013.43 1012.84 1012.43 1012.21 1011.95 1011.91 1011.91 1011.60 1010.99 1010.84 1010.66 1010.80 1011.33 1011.65 1011.84 1012.16 1012.72 1013.18 1013.54 1013.97
1012.43 1012.51 1012.65 1012.98 1013.34 1013.40 1013.46 1013.29 1013.11 1012.97 1013.04 1013.01 1012.97 1012.96 1012.70 1012.70 1012.59 1012.40 1012.41 1012.61 1012.70 1012.57 1012.74 1012.83 1012.37 1011.86 1011.59 1011.35 1011.23 1011.29 1010.94 1010.60 1010.20 1009.82 1009.98 1010.27 1010.76 1011.04 1011.50 1011.86 1012.24 1012.61 1013.02
1012.13 1012.32 1012.53 1012.72 1012.90 1012.75 1012.88 1013.03 1013.16 1013.10 1012.79 1012.55 1012.45 1012.53 1012.39 1012.17 1011.95 1011.85 1011.89 1011.79 1011.88 1011.97 1012.01 1011.96 1011.65 1011.41 1011.25 1010.80 1010.83 1010.89 1010.77 1010.35 1009.88 1009.39 1009.30 1009.51 1009.91 1010.31 1010.65 1010.91 1011.27 1011.68 1012.15
1011.65 1011.61 1011.74 1012.00 1012.25 1012.41 1012.54 1012.61 1012.83 1013.16 1013.25 1013.03 1012.49 1012.03 1011.79 1011.60 1011.31 1011.06 1011.12 1011.06 1011.19 1011.34 1011.46 1011.36 1011.12 1010.96 1010.79 1010.75 1010.72 1010.30 1010.31 1009.85 1009.51 1009.32 1009.16 1009.14 1009.55 1009.79 1009.79 1010.36 1010.55 1010.79 1011.00
1011.51 1011.65 1011.82 1011.80 1011.98 1012.14 1012.12 1012.26 1012.60 1012.81 1012.66 1012.81 1012.95 1012.36 1011.81 1011.32 1010.92 1010.61 1010.43 1010.36 1010.35 1010.49 1010.52 1010.52 1010.55 1010.59 1010.17 1010.11 1009.96 1009.97 1010.02 1010.10 1009.79 1008.60 1009.04 1008.90 1008.97 1009.15 1009.13 1009.17 1009.18 1009.54 1009.87
1011.10 1011.39 1011.67 1011.88 1011.88 1011.66 1011.75 1012.12 1012.29 1012.48 1012.77 1012.69 1012.57 1012.41 1011.78 1011.17 1010.95 1010.55 1009.97 1009.64 1009.51 1009.41 1009.40 1009.70 1009.85 1009.69 1009.46 1009.26 1009.32 1009.34 1009.46 1009.49 1009.28 1008.71 1008.86 1008.73 1008.53 1008.42 1008.21 1008.02 1008.11 1008.38 1008.66
1011.43 1011.70 1012.01 1012.11 1012.19 1012.06 1011.58 1011.47 1011.62 1011.80 1011.98 1011.96 1011.92 1012.07 1012.05 1011.43 1011.14 1010.70 1010.33 1009.97 1009.53 1009.07 1008.83 1008.87 1008.96 1008.48 1008.45 1008.39 1008.67 1008.66 1008.78 1008.75 1008.42 1008.25 1008.31 1008.48 1007.76 1007.55 1007.29 1007.11 1007.12 1007.23 1007.46
1011.99 1012.04 1012.09 1012.14 1011.99 1011.91 1011.74 1011.81 1011.33 1011.41 1011.54 1011.36 1011.27 1010.99 1011.62 1011.78 1011.72 1010.97 1010.74 1010.32 1009.83 1009.33 1008.70 1008.49 1008.27 1008.04 1008.13 1008.00 1008.14 1008.44 1008.42 1008.55 1008.11 1007.62 1007.48 1007.70 1007.09 1007.06 1006.79 1006.53 1006.16 1006.22 1006.44
1012.27 1012.41 1012.42 1012.27 1012.10 1012.21 1011.71 1011.49 1011.18 1011.12 1011.38 1011.22 1010.99 1010.76 1010.83 1010.91 1011.07 1010.99 1010.83 1010.46 1010.16 1009.47 1009.13 1008.59 1008.20 1007.85 1007.48 1007.38 1007.29 1007.62 1007.61 1007.84 1007.72 1007.30 1006.49 1007.06 1006.70 1006.88 1006.78 1006.04 1005.65 1005.66 1005.82
Wind_Speed
4 4 4 3 4 4 4 4 4 5 5 5 5 6 6 6 6 4 3 12 11 11 11 13 11 12 14 14 13 14 13 13 12 12 13 14 14 14 14 14 12 11 10
5 5 4 5 4 4 3 4 4 4 5 4 5 6 7 6 7 5 5 6 14 13 12 13 13 14 15 14 15 14 15 14 14 13 13 13 14 14 15 14 14 13 11
6 5 5 4 5 4 5 4 4 2 2 3 7 6 5 7 6 6 6 5 8 17 16 16 15 15 16 15 15 14 14 13 14 14 13 14 15 14 15 15 15 14 14
6 5 3 4 4 4 4 3 3 3 4 4 4 7 6 5 6 7 7 6 5 6 13 19 16 15 17 16 14 14 13 12 13 13 14 14 15 16 15 15 15 15 13
6 5 4 4 4 3 3 3 4 3 4 5 6 6 7 5 7 6 9 9 8 6 5 13 18 16 19 18 17 16 14 12 12 13 14 15 15 16 16 16 15 15 16
6 5 4 4 3 3 4 4 5 4 4 4 5 6 6 7 6 8 8 8 8 9 8 9 8 10 19 20 16 16 16 11 13 13 12 12 14 15 15 15 15 15 16
6 6 4 4 3 3 4 3 2 4 3 3 2 4 5 8 8 6 5 5 8 9 9 9 7 6 8 21 20 19 18 19 18 16 15 13 11 13 16 16 16 16 16
7 6 6 5 5 3 5 4 5 2 3 3 2 1 4 5 2 5 3 6 11 7 8 10 9 11 8 7 14 21 21 20 21 20 18 16 14 13 14 16 17 17 17
8 8 7 6 6 4 4 5 4 5 4 2 4 3 3 3 3 1 4 5 6 6 6 7 9 10 9 6 9 15 20 20 22 23 21 18 15 14 14 15 16 17 17
6 7 7 7 6 4 5 5 4 4 3 4 1 3 3 3 3 6 3 4 4 6 7 4 4 7 7 5 11 16 16 21 22 23 23 24 20 18 17 16 16 16 17
8 9 8 7 6 5 5 6 5 4 3 2 3 1 1 2 1 3 7 4 3 5 7 6 8 9 8 7 8 13 20 18 21 22 22 23 24 22 21 20 19 18 19
6 9 8 6 6 6 6 6 6 5 4 3 3 3 3 3 3 3 4 5 6 5 3 5 7 7 6 9 15 20 19 20 22 22 22 24 23 24 25 24 23 22 21
4 6 6 7 8 8 7 5 6 6 5 2 3 3 3 5 3 3 2 5 4 3 3 3 4 5 7 8 5 7 12 13 20 22 21 23 25 24 25 24 24 24 24
4 6 6 7 7 7 5 5 4 4 1 3 4 7 5 4 4 4 3 2 4 2 2 5 1 1 3 5 9 15 6 9 19 22 22 21 22 23 23 24 23 24 23
4 6 5 5 5 5 5 6 4 2 9 6 11 5 6 1 3 4 4 4 4 3 4 3 1 3 2 5 7 6 7 14 16 14 20 20 22 22 23 22 22 21 22
6 5 5 6 5 5 5 6 4 3 8 6 4 6 4 2 5 3 4 4 3 3 3 3 2 4 4 4 7 7 7 10 13 11 20 22 24 24 24 23 22 21 20
6 5 6 5 6 6 5 5 6 4 5 6 4 7 6 5 5 4 4 4 4 4 5 4 3 3 5 5 6 5 6 4 6 13 15 20 24 25 24 24 23 22 23
6 6 5 6 6 5 5 6 7 4 7 9 9 7 8 4 7 6 4 6 5 6 5 9 4 4 6 6 5 6 6 6 7 10 14 17 20 21 22 22 22 22 21
7 6 5 5 5 6 6 6 5 5 6 8 8 7 8 7 9 6 5 6 5 5 6 5 6 4 5 3 4 3 5 5 5 11 12 16 16 18 19 20 21 21 20
5 5 5 5 6 5 5 5 5 6 5 5 6 7 8 8 9 7 6 8 7 6 6 6 7 5 4 4 3 4 4 3 5 5 6 6 10 16 19 20 22 21 20
5 4 4 4 4 3 3 2 3 4 5 7 7 6 5 7 11 10 5 7 7 7 6 7 7 3 3 3 3 2 4 3 4 5 4 4 4 5 8 14 15 22 21
5 6 4 3 1 1 4 4 2 3 3 4 6 7 5 8 7 9 11 14 10 8 6 4 4 6 5 4 3 4 3 1 3 2 3 5 5 7 6 7 15 19 23
6 5 3 3 4 4 5 6 6 3 4 5 6 6 6 5 7 7 8 9 9 12 14 4 6 6 5 6 3 3 4 4 4 3 3 4 4 7 6 8 15 19 21
5 4 2 2 3 5 6 5 6 4 4 6 6 7 6 7 5 6 6 6 6 6 5 5 9 10 8 5 5 5 5 5 3 3 4 5 4 5 3 7 15 19 19
2 2 1 5 3 6 9 8 6 5 6 7 6 5 4 5 4 7 6 7 7 7 7 6 10 11 8 9 6 1 5 4 5 4 6 4 3 4 3 6 6 15 17
1 2 4 5 7 7 9 9 3 1 4 5 6 6 4 5 1 5 3 3 6 6 7 10 9 7 7 7 11 9 5 6 5 4 5 6 3 4 3 3 2 1 3
Wind_Direction
212 195 216 210 210 213 200 211 223 226 211 233 221 217 226 222 220 211 214 244 233 231 205 199 207 216 206 200 196 198 200 194 187 194 194 196 195 192 193 191 189 191 185
202 185 203 217 222 219 198 198 209 213 220 237 252 223 233 229 228 207 215 221 232 230 232 213 205 213 219 204 204 202 198 198 194 191 199 199 196 197 196 199 193 195 192
212 183 196 215 210 204 213 209 227 209 225 231 264 251 239 231 231 213 219 211 226 230 226 221 215 211 220 215 202 208 207 203 201 199 199 207 204 200 200 199 198 196 191
185 186 185 206 186 190 218 221 188 216 249 235 251 261 254 244 240 224 222 223 219 216 228 227 222 213 220 216 210 203 212 209 206 207 203 206 209 207 205 204 203 201 199
191 185 199 209 189 184 210 240 232 194 225 247 241 257 260 236 232 230 221 220 221 220 211 226 223 214 219 220 212 215 213 213 216 207 209 208 211 214 209 205 204 205 201
201 201 215 228 205 201 210 229 236 224 227 236 257 265 257 252 225 222 216 217 220 226 214 216 219 219 218 224 218 211 217 230 221 224 202 210 214 215 213 210 204 205 206
200 209 220 236 217 221 218 223 235 247 262 221 289 287 275 250 246 231 209 217 229 221 214 209 211 213 222 226 227 219 216 205 224 221 218 204 205 213 213 208 210 205 206
203 210 206 222 221 220 243 237 211 241 248 200 241 18 329 327 341 245 219 215 231 224 212 214 209 213 208 212 224 227 222 217 215 223 219 213 209 209 215 210 206 208 205
210 208 204 211 221 205 227 232 232 209 260 300 204 172 325 273 324 327 256 245 239 233 224 211 220 226 214 207 223 234 229 225 224 222 220 218 214 212 212 216 210 209 208
220 212 208 209 217 213 231 229 234 228 174 275 348 245 234 213 270 318 312 301 248 242 241 230 218 236 222 207 220 236 235 228 225 227 220 219 224 218 215 218 214 211 212
218 222 212 210 216 217 231 231 251 247 189 216 222 279 273 274 257 238 294 304 316 263 249 215 198 229 203 177 216 236 234 236 234 229 223 221 222 219 220 214 214 215 212
225 228 225 218 219 217 224 229 232 242 243 225 244 225 231 243 260 206 257 268 259 285 263 207 213 226 189 195 210 233 229 228 236 237 225 220 220 221 219 219 213 214 217
225 235 215 219 226 225 225 221 231 235 229 257 334 287 273 249 185 208 246 292 285 295 290 259 209 193 200 198 192 253 257 255 244 241 234 224 217 217 219 220 218 216 215
213 228 225 221 212 207 214 218 225 233 31 32 306 241 198 262 183 184 201 209 320 304 305 258 29 184 197 182 190 190 195 292 274 242 232 222 219 221 218 219 224 219 215
208 222 230 228 220 209 222 233 238 287 92 216 252 300 237 321 250 190 184 170 169 313 301 316 242 266 218 188 208 210 197 227 244 241 226 220 219 217 221 217 217 220 218
243 216 226 216 217 213 225 240 246 143 149 220 275 289 275 263 260 189 188 179 181 193 261 253 247 203 219 230 243 250 223 236 245 240 227 217 217 215 216 218 214 214 215
235 220 218 215 219 225 237 249 255 181 193 188 219 245 247 256 264 234 188 184 203 181 230 276 253 215 217 215 237 239 241 234 282 275 226 215 215 212 213 215 215 214 217
228 236 239 246 244 257 267 248 258 220 186 198 212 218 248 246 257 243 207 211 209 197 206 247 239 248 233 206 222 227 224 222 220 240 218 213 217 214 210 211 213 215 216
233 241 232 250 263 278 280 265 262 261 234 223 222 224 239 245 259 252 221 230 224 223 213 229 264 230 251 246 253 250 248 229 236 253 223 215 210 207 218 215 209 210 210
222 227 223 239 252 257 263 290 296 295 278 262 255 237 245 240 244 244 235 231 229 237 244 240 254 257 227 244 216 232 274 225 246 239 235 214 207 209 215 211 213 210 210
184 168 169 206 236 267 287 305 327 321 320 316 311 297 278 268 262 253 210 238 226 231 230 237 259 224 237 236 212 244 237 261 256 219 231 231 206 216 222 221 226 222 213
157 156 137 117 86 291 230 228 241 288 292 307 309 307 301 293 308 298 270 250 228 238 249 216 246 249 245 229 215 210 210 215 285 228 204 238 194 222 219 214 216 221 214
160 143 158 180 230 252 257 252 236 234 272 285 287 290 301 305 319 308 301 285 272 246 229 239 241 229 239 208 212 254 240 205 218 248 183 260 187 233 212 221 217 215 220
140 169 229 332 335 298 292 286 259 254 263 268 262 280 286 298 354 352 0 359 334 311 286 228 234 250 230 229 203 204 232 253 269 226 174 248 181 236 214 220 215 219 215
63 36 333 303 285 291 291 306 313 296 280 276 272 275 303 329 337 27 26 354 335 322 328 318 262 276 283 267 232 230 259 239 266 237 197 204 213 241 210 249 236 213 215
40 315 290 265 280 284 299 282 293 247 282 284 288 287 94 156 257 29 15 348 329 299 321 324 319 295 255 246 231 201 213 232 238 295 202 191 189 173 293 275 266 245 216